星链-5973 (STARLINK-5973 )

导读 | 豆包AI

STARLINK-5973是美国SpaceX公司星链(Starlink)低轨卫星互联网星座的一员,于2023年6月12日发射。作为星链批量生产的现役卫星,它运行在近地轨道,配备相控阵天线与霍尔推进器,支持自主轨道机动和避碰,可提供高速卫星互联网接入,服务覆盖全球多个国家和地区,助力偏远地区联网、航空航海通信等场景应用。

Basic Information
目录编号:
56916
目录名称:
STARLINK-5973
国际标识:
2023-083AS
轨道中心:
EARTH
卫星名称:
星链-5973
卫星全名:
星链-5973 (STARLINK-5973 )
卫星状态:
在轨 (已飞行1053 天)
发射日期:
2023-06-12 UTC
国别 :
美国 (US)
星等 :
--
Orbit Information
数据来源 国际轨道数据 AOE轨道数据
星历时间 2026-04-30T10:34:45+0800
7小时前
查看轨道信息
2026-04-27T07:00:00+0800
3天前
查看轨道信息
半长轴 6863.687km 6863.674km
偏心率 0.0001148 0.0000023
轨道倾角 43.005° 42.998°
近地点辐角 280.847° 71.785°
升交点赤经 140.143° 157.908°
平近点角 79.225° 239.498°
近地点 484.762km 485.521km
远地点 486.338km 485.553km
周期 94.318分钟 94.318分钟
每日圈数 15.267452 15.267496
Detailed Information
固有亮度:
5
最大亮度:
2.4
卫星平台:
Starlink v1.5
覆盖范围:
全球
运营商:
太空探索技术公司
运营商所在国:
美国
制造商(研发单位):
太空探索技术公司
制造商所在国:
美国
使用方式:
暂无
Satellite Introduction
星链(Starlink)计划是由太空探索技术公司(SpaceX)提出的一个巨型低轨卫星互联网星座项目,计划在2019年至2024年间在太空搭建由约1.2万颗卫星组成的“星链”网络,其中1584颗将部署在地球上空550千米处的近地轨道,并从2020年开始工作。该卫星仍在工作。
2D Orbit Map
3D Orbit Map
Orbit Altitude Analysis Chart
Orbit Inclination Analysis Chart
Orbit Comprehensive Analysis Chart
View Comprehensive Chart